GW3251 Weather Reports


Display with metric or nautical units.
time (UTC)temp
F
wind
direction
speed
MPH
gust
MPH
rain 1hr
in
rain 24hr
in
rain mn
in
humidity
%
barometer
mb
20260503194038 82 0 2.0 11.0 0.00 0.00 0.00 43 1020.7
20260503193538 82 157 1.0 11.0 0.00 0.00 0.00 45 1020.6
20260503193107 82 0 1.0 8.0 0.00 0.00 0.00 46 1020.9
20260503192538 80 0 0.0 5.0 0.00 0.00 0.00 45 1021.0
20260503192039 79 0 0.0 5.0 0.00 0.00 0.00 40 1021.0
20260503191552 80 0 0.0 10.0 0.00 0.00 0.00 47 1021.0
20260503191037 79 0 1.0 10.0 0.00 0.00 0.00 48 1021.2
20260503190539 79 0 0.0 7.0 0.00 0.00 0.00 46 1021.3
20260503190054 80 0 0.0 7.0 0.00 0.00 0.00 44 1021.3
20260503185536 79 0 0.0 10.0 0.00 0.00 0.00 46 1021.4
20260503185038 80 0 0.0 10.0 0.00 0.00 0.00 42 1021.4
20260503184604 79 0 0.0 6.0 0.00 0.00 0.00 47 1021.5
20260503184038 79 0 0.0 8.0 0.00 0.00 0.00 43 1021.4
20260503183539 80 0 0.0 10.0 0.00 0.00 0.00 48 1021.6
20260503183059 79 0 2.0 10.0 0.00 0.00 0.00 46 1021.7
20260503182536 80 0 0.0 10.0 0.00 0.00 0.00 42 1021.7
20260503182037 80 0 1.0 10.0 0.00 0.00 0.00 46 1021.8
20260503181607 80 0 0.0 5.0 0.00 0.00 0.00 47 1022.0
20260503181039 80 0 0.0 5.0 0.00 0.00 0.00 45 1022.1
20260503180536 79 0 0.0 5.0 0.00 0.00 0.00 50 1022.2
20260503180051 80 0 0.0 5.0 0.00 0.00 0.00 49 1022.2
20260503175540 80 0 0.0 1.0 0.00 0.00 0.00 49 1022.3
20260503175036 79 0 0.0 8.0 0.00 0.00 0.00 47 1022.4
20260503174547 79 0 0.0 8.0 0.00 0.00 0.00 51 1022.4
20260503174036 77 0 0.0 8.0 0.00 0.00 0.00 52 1022.5
20260503173539 79 0 0.0 8.0 0.00 0.00 0.00 52 1022.6
20260503173100 79 231 0.0 5.0 0.00 0.00 0.00 50 1022.6
20260503172540 78 0 0.0 8.0 0.00 0.00 0.00 53 1022.8
20260503172039 78 0 0.0 9.0 0.00 0.00 0.00 50 1022.9
20260503171553 78 215 1.0 9.0 0.00 0.00 0.00 53 1023.0
20260503171037 77 0 0.0 7.0 0.00 0.00 0.00 49 1023.0
20260503170537 77 0 0.0 7.0 0.00 0.00 0.00 56 1022.9
20260503150537 71 0 0.0 4.0 0.00 0.00 0.00 66 1023.3
20260503131036 56 0 0.0 0.0 0.00 0.00 0.00 95 1022.5
20260503130536 55 0 0.0 0.0 0.00 0.00 0.00 95 1022.4
20260503110536 50 0 0.0 0.0 0.00 0.00 0.00 94 1021.4
20260503081617 51 0 0.0 0.0 0.00 0.00 0.00 93 1021.1
20260503081037 51 0 0.0 0.0 0.00 0.00 0.00 93 1021.1
20260503080536 52 0 0.0 0.0 0.00 0.00 0.00 93 1021.0
20260503072537 52 0 0.0 0.0 0.00 0.00 0.00 93 1021.2
20260503072037 52 0 0.0 0.0 0.00 0.00 0.00 93 1021.3
20260503071545 52 0 0.0 0.0 0.00 0.00 0.00 93 1021.1
20260503071036 52 0 0.0 0.0 0.00 0.00 0.00 93 1021.3
20260503070536 52 0 0.0 0.0 0.00 0.00 0.00 93 1021.2
20260503055041 54 0 0.0 0.0 0.00 0.00 0.00 92 1021.4
20260503054554 53 0 0.0 0.0 0.00 0.00 0.00 92 1021.5
20260503054038 54 0 0.0 0.0 0.00 0.00 0.00 92 1021.6
20260503053538 54 0 0.0 0.0 0.00 0.00 0.00 92 1021.6
20260503053048 54 0 0.0 0.0 0.00 0.00 0.00 92 1021.5
20260503052538 54 0 0.0 0.0 0.00 0.00 0.00 92 1021.6
20260503052039 54 0 0.0 0.0 0.00 0.00 0.00 92 1021.6
20260503051544 54 0 0.0 0.0 0.00 0.00 0.00 92 1021.5
20260503051037 54 0 0.0 0.0 0.00 0.00 0.00 92 1021.2
20260503050539 54 0 0.0 0.0 0.00 0.00 0.00 92 1021.4
20260503050055 54 0 0.0 0.0 0.00 0.00 0.00 92 1021.4
20260503045539 55 0 0.0 0.0 0.00 0.00 0.00 92 1021.2
20260503045038 55 0 0.0 0.0 0.00 0.00 0.00 92 1021.3
20260503044552 55 0 0.0 0.0 0.00 0.00 0.00 92 1021.4
20260503044037 55 0 0.0 0.0 0.00 0.00 0.00 92 1021.4
20260503043538 55 0 0.0 0.0 0.00 0.00 0.00 91 1021.4
20260503043047 55 0 0.0 0.0 0.00 0.00 0.00 91 1021.4
20260503042538 55 0 0.0 0.0 0.00 0.00 0.00 91 1021.4
20260503042038 55 0 0.0 0.0 0.00 0.00 0.00 91 1021.3
20260503041549 55 0 0.0 0.0 0.00 0.00 0.00 91 1021.2
20260503041037 55 0 0.0 0.0 0.00 0.00 0.00 91 1021.2
20260503040537 55 0 0.0 0.0 0.00 0.00 0.00 91 1021.1
20260503040051 56 0 0.0 0.0 0.00 0.00 0.00 91 1021.2
20260503035538 56 0 0.0 0.0 0.00 0.00 0.00 91 1021.1
20260503035038 56 0 0.0 0.0 0.00 0.00 0.00 91 1021.1
20260503034550 56 0 0.0 0.0 0.00 0.00 0.00 91 1021.0
20260503034038 56 0 0.0 0.0 0.00 0.00 0.00 90 1021.0
20260503033540 56 0 0.0 0.0 0.00 0.00 0.00 90 1020.9
20260503033101 56 0 0.0 0.0 0.00 0.00 0.00 90 1020.9
20260503032537 56 0 0.0 0.0 0.00 0.00 0.00 90 1020.9
20260503032036 56 0 0.0 0.0 0.00 0.00 0.00 90 1020.6
20260503031556 57 0 0.0 0.0 0.00 0.00 0.00 90 1020.5
20260503031037 57 0 0.0 0.0 0.00 0.00 0.00 90 1020.5
20260503030536 57 0 0.0 0.0 0.00 0.00 0.00 89 1020.6
20260503030104 57 0 0.0 0.0 0.00 0.00 0.00 89 1020.5
20260503025537 57 0 0.0 0.0 0.00 0.00 0.00 89 1020.5
20260503025039 57 0 0.0 0.0 0.00 0.00 0.00 89 1020.5
20260503024615 57 0 0.0 0.0 0.00 0.00 0.00 89 1020.4
20260503024037 57 0 0.0 0.0 0.00 0.00 0.00 88 1020.5
20260503023538 58 0 0.0 0.0 0.00 0.00 0.00 88 1020.4
20260503023046 58 0 0.0 0.0 0.00 0.00 0.00 88 1020.4
20260503022536 58 0 0.0 0.0 0.00 0.00 0.00 88 1020.4
20260503022039 58 0 0.0 0.0 0.00 0.00 0.00 88 1020.3
20260503021556 59 0 0.0 0.0 0.00 0.00 0.00 87 1020.4
20260503021036 59 0 0.0 0.0 0.00 0.00 0.00 86 1020.2
20260503020537 59 0 0.0 0.0 0.00 0.00 0.00 86 1020.1
20260503020049 59 0 0.0 0.0 0.00 0.00 0.00 85 1020.0
20260503015537 60 0 0.0 0.0 0.00 0.00 0.00 85 1019.9
20260503015038 60 0 0.0 0.0 0.00 0.00 0.00 84 1020.0
20260503014547 60 0 0.0 0.0 0.00 0.00 0.00 84 1019.9
20260503014037 60 0 0.0 0.0 0.00 0.00 0.00 84 1019.8
20260503013537 61 0 0.0 0.0 0.00 0.00 0.00 83 1019.8
20260503013046 61 0 0.0 0.0 0.00 0.00 0.00 83 1019.7
20260503012540 61 0 0.0 0.0 0.00 0.00 0.00 82 1019.7
20260503012037 62 0 0.0 0.0 0.00 0.00 0.00 81 1019.6
20260503011549 62 0 0.0 0.0 0.00 0.00 0.00 80 1019.6
20260503011038 63 0 0.0 0.0 0.00 0.00 0.00 78 1019.5
20260503010537 63 0 0.0 0.0 0.00 0.00 0.00 78 1019.4
20260503010048 64 0 0.0 0.0 0.00 0.00 0.00 76 1019.5
20260503005538 64 0 0.0 0.0 0.00 0.01 0.00 75 1019.5
20260503005038 65 0 0.0 0.0 0.00 0.01 0.00 75 1019.3
20260503004546 66 0 0.0 0.0 0.00 0.01 0.00 73 1019.2
20260503004037 66 0 0.0 0.0 0.00 0.01 0.00 71 1019.3
20260503003540 67 0 0.0 0.0 0.00 0.01 0.00 71 1019.2
20260503003051 67 0 0.0 0.0 0.00 0.01 0.00 68 1019.2
20260503002537 68 0 0.0 0.0 0.00 0.01 0.00 67 1019.3
20260503002037 69 0 0.0 0.0 0.00 0.01 0.00 64 1019.2
20260503001557 69 0 0.0 0.0 0.00 0.01 0.00 59 1019.2
20260503001037 70 0 0.0 0.0 0.00 0.01 0.00 58 1019.1
20260503000537 70 0 0.0 0.0 0.00 0.01 0.00 60 1019.1
20260503000058 70 0 0.0 0.0 0.00 0.01 0.00 59 1019.1
20260502235536 71 0 0.0 0.0 0.00 0.04 0.00 53 1019.0
20260502235036 71 0 0.0 0.0 0.00 0.04 0.00 53 1019.0
20260502234555 72 0 0.0 0.0 0.00 0.04 0.00 54 1018.9
20260502234037 72 0 0.0 3.0 0.00 0.04 0.00 55 1019.0
20260502233537 72 0 0.0 8.0 0.00 0.04 0.00 52 1018.8
20260502233105 72 0 0.0 8.0 0.00 0.04 0.00 50 1018.9
20260502232536 72 22 2.0 8.0 0.00 0.04 0.00 49 1018.9
20260502232036 73 0 0.0 4.0 0.00 0.04 0.00 53 1018.9
20260502231602 73 0 0.0 3.0 0.00 0.04 0.00 52 1018.9
20260502231038 73 0 0.0 0.0 0.00 0.04 0.00 52 1018.9
20260502230536 73 0 0.0 7.0 0.00 0.04 0.00 50 1018.9
20260502230049 74 0 0.0 9.0 0.00 0.04 0.00 52 1018.8
20260502225539 75 53 0.0 9.0 0.00 0.10 0.00 49 1018.8
20260502225037 75 0 1.0 12.0 0.00 0.10 0.00 50 1019.0
20260502224548 75 17 2.0 12.0 0.00 0.10 0.00 48 1019.0
20260502224037 75 50 0.0 6.0 0.00 0.10 0.00 49 1019.0
20260502223537 74 0 0.0 6.0 0.00 0.10 0.00 50 1018.9
20260502223052 73 0 0.0 9.0 0.00 0.10 0.00 52 1019.1
20260502222539 74 0 1.0 9.0 0.00 0.10 0.00 50 1019.0
20260502222038 76 0 0.0 12.0 0.00 0.10 0.00 52 1019.1
20260502221600 76 0 2.0 12.0 0.00 0.10 0.00 46 1018.9
20260502221037 76 27 3.0 12.0 0.00 0.10 0.00 48 1019.1
20260502220538 76 42 1.0 6.0 0.00 0.10 0.00 48 1019.1
20260502220046 76 0 0.0 0.0 0.00 0.10 0.00 49 1019.1
20260502215536 75 0 0.0 9.0 0.00 0.19 0.00 50 1019.2
20260502215040 76 0 1.0 9.0 0.00 0.19 0.00 49 1019.2
20260502214604 74 0 0.0 9.0 0.00 0.19 0.00 57 1019.3
20260502214037 73 0 0.0 9.0 0.00 0.19 0.00 53 1019.1
20260502213536 75 352 0.0 10.0 0.00 0.19 0.00 49 1019.3
20260502213052 75 0 1.0 10.0 0.00 0.19 0.00 48 1019.3
20260502212536 75 360 1.0 10.0 0.00 0.19 0.00 51 1019.4
20260502212039 76 0 4.0 10.0 0.00 0.19 0.00 48 1019.4
20260502211548 76 0 0.0 11.0 0.00 0.19 0.00 48 1019.4
20260502211040 77 0 3.0 11.0 0.00 0.19 0.00 50 1019.6
20260502210538 77 19 2.0 11.0 0.00 0.19 0.00 49 1019.5
20260502210046 76 0 0.0 10.0 0.00 0.19 0.00 52 1019.6
20260502205538 76 0 1.0 10.0 0.00 0.36 0.00 48 1019.5
20260502205039 76 36 0.0 10.0 0.00 0.36 0.00 50 1019.7
20260502204550 76 343 0.0 8.0 0.00 0.36 0.00 48 1019.7
20260502204041 76 0 2.0 8.0 0.00 0.36 0.00 49 1019.7
20260502203539 76 0 0.0 7.0 0.00 0.36 0.00 52 1019.6
20260502203055 76 0 0.0 10.0 0.00 0.36 0.00 52 1019.6
20260502202537 75 0 3.0 11.0 0.00 0.36 0.00 53 1019.8
20260502202037 76 0 3.0 11.0 0.00 0.36 0.00 55 1020.0
20260502201549 75 0 0.0 6.0 0.00 0.36 0.00 50 1020.0
20260502201037 76 0 0.0 12.0 0.00 0.36 0.00 54 1020.2
20260502200537 76 0 3.0 12.0 0.00 0.36 0.00 51 1020.0
20260502200045 76 0 0.0 11.0 0.00 0.36 0.00 48 1020.1
20260502195538 76 352 0.0 11.0 0.00 0.47 0.00 56 1020.0
20260502195038 75 70 0.0 10.0 0.00 0.47 0.00 52 1020.2